闪电 1-90星 (MOLNIYA 1-90)

导读

MOLNIYA 1-90是独联体(CIS)于1997年9月24日发射的苏联/俄罗斯“闪电”一号系列通信卫星,属于该系列最后批次卫星之一。卫星运行在12小时周期的闪电型大椭圆轨道,近地点约500千米,远地点约4万千米,倾角约62.8°。作为“闪电”一号卫星,发射质量约1.6吨,采用三轴稳定设计,配备多路转发器,主要服务高纬度地区军事通信,也可传输电视广播信号,设计寿命约1-2年,逐步承担接替在轨老卫星的通信任务。

Basic Information
目录编号:
24960
目录名称:
MOLNIYA 1-90
国际标识:
1997-054A
轨道中心:
EARTH
卫星名称:
闪电 1-90星
卫星全名:
闪电 1-90星 (MOLNIYA 1-90)
卫星状态:
在轨 (已飞行10534 天)
发射日期:
1997-09-24 UTC
国别 :
俄罗斯(独联体) (CIS)
星等 :
--
Orbit Information
数据来源 国际轨道数据 AOE轨道数据
星历时间 2026-07-27T13:58:40+0800
22小时前
查看轨道信息
2026-07-25T16:00:00+0800
2天前
查看轨道信息
半长轴 19505.384km 19505.339km
偏心率 0.586951 0.5870058
轨道倾角 64.403° 64.403°
近地点辐角 279.481° 279.519°
升交点赤经 195.291° 195.674°
平近点角 22.265° 344.346°
近地点 1678.542km 1677.454km
远地点 24575.952km 24576.95km
周期 451.847分钟 451.846分钟
每日圈数 3.186919 3.18693
Detailed Information
平衡模式:
三轴稳定
覆盖范围:
全球
运营商:
俄罗斯国家航天集团
运营商所在国:
俄罗斯
制造商(研发单位):
普里克拉德诺伊·梅哈尼基设计局
制造商所在国:
俄罗斯联邦
使用方式:
暂无
Satellite Introduction
闪电(Molniya (Satellite))系列卫星是苏联/俄罗斯于1965年至2004年间发射的军事和通信卫星。这些卫星使用高度偏心的椭圆轨道,称为Molniya轨道(即闪电轨道),在高纬度地区具有较长的停留时间。该卫星状态未知。
2D Orbit Map
3D Orbit Map
Orbit Altitude Analysis Chart
Orbit Inclination Analysis Chart
Orbit Comprehensive Analysis Chart
View Comprehensive Chart